TimeCDT,TemperatureF,Dew PointF,Humidity,Sea Level PressureIn,VisibilityMPH,Wind Direction,Wind SpeedMPH,Gust SpeedMPH,PrecipitationIn,Events,Conditions,WindDirDegrees,DateUTC
12:53 AM,64.0,57.0,78,30.27,10.0,SE,6.9,-,N/A,,Clear,140,2013-03-15 05:53:00
1:53 AM,64.0,57.0,78,30.25,10.0,SE,6.9,-,N/A,,Clear,130,2013-03-15 06:53:00
2:53 AM,63.0,57.0,81,30.23,10.0,SE,6.9,-,N/A,,Clear,140,2013-03-15 07:53:00
3:53 AM,61.0,55.9,83,30.22,10.0,SSE,6.9,-,N/A,,Clear,160,2013-03-15 08:53:00
4:53 AM,61.0,55.9,83,30.20,10.0,SE,5.8,-,N/A,,Clear,140,2013-03-15 09:53:00
5:53 AM,59.0,55.0,87,30.20,9.0,South,3.5,-,N/A,,Clear,180,2013-03-15 10:53:00
6:53 AM,57.0,54.0,89,30.20,8.0,SSE,5.8,-,0.00,,Clear,160,2013-03-15 11:53:00
7:53 AM,59.0,55.0,87,30.21,7.0,South,3.5,-,N/A,,Clear,180,2013-03-15 12:53:00
8:53 AM,64.9,59.0,81,30.22,8.0,SE,3.5,-,N/A,,Clear,140,2013-03-15 13:53:00
9:53 AM,73.0,59.0,61,30.23,8.0,SSE,16.1,-,N/A,,Partly Cloudy,150,2013-03-15 14:53:00
10:53 AM,75.9,57.0,52,30.24,8.0,SSE,12.7,21.9,N/A,,Partly Cloudy,160,2013-03-15 15:53:00
11:53 AM,77.0,55.9,48,30.22,8.0,SSE,17.3,25.3,N/A,,Partly Cloudy,150,2013-03-15 16:53:00
12:53 PM,79.0,55.9,45,30.20,8.0,SSE,17.3,26.5,0.00,,Partly Cloudy,160,2013-03-15 17:53:00
1:53 PM,79.0,55.0,44,30.16,8.0,SSE,21.9,29.9,0.00,,Partly Cloudy,160,2013-03-15 18:53:00
2:53 PM,81.0,53.1,38,30.13,9.0,SSE,19.6,28.8,0.00,Rain,Light Rain,150,2013-03-15 19:53:00
3:53 PM,81.0,53.1,38,30.10,8.0,SSE,21.9,31.1,0.00,,Clear,150,2013-03-15 20:53:00
4:53 PM,79.0,55.0,44,30.09,8.0,SSE,20.7,31.1,0.00,,Clear,150,2013-03-15 21:53:00
5:53 PM,77.0,54.0,45,30.08,8.0,SSE,19.6,29.9,N/A,,Clear,150,2013-03-15 22:53:00
6:53 PM,73.9,55.0,52,30.07,8.0,SSE,19.6,25.3,N/A,,Clear,150,2013-03-15 23:53:00
7:53 PM,71.1,57.9,63,30.07,9.0,SSE,15.0,-,N/A,,Clear,150,2013-03-16 00:53:00
8:53 PM,69.1,57.9,68,30.07,10.0,SSE,11.5,-,N/A,,Clear,160,2013-03-16 01:53:00
9:53 PM,69.1,59.0,70,30.08,10.0,SSE,9.2,-,N/A,,Clear,150,2013-03-16 02:53:00
10:53 PM,68.0,59.0,73,30.08,10.0,SSE,8.1,-,N/A,,Clear,160,2013-03-16 03:53:00
11:53 PM,66.0,57.9,75,30.08,10.0,South,6.9,-,N/A,,Clear,170,2013-03-16 04:53:00